Regional Weather Roundup
Issued by NWS Wilmington, NC

Home | Current Version | Previous Version | Text Only | Print | Product List | Glossary On
Versions: 1 2 3 4 5 6 7 8 9 10 11 12 13 14 15 16 17 18 19 20 21 22 23 24 25 26 27 28 29 30 31 32 33 34 35 36 37 38 39 40 41 42 43 44 45 46 47 48 49
000
ASUS42 KILM 180813
RWRILM
RWRILM
REGIONAL HOURLY WEATHER ROUNDUP
NATIONAL WEATHER SERVICE WILMINGTON NC
400 AM EDT SAT APR 18 2015

NOTE: "FAIR" INDICATES FEW OR NO CLOUDS BELOW 12,000 FEET WITH NO
SIGNIFICANT WEATHER AND/OR OBSTRUCTIONS TO VISIBILITY.

...............WFO WILMINGTON COUNTY WARNING AREA...............

......COASTAL NC AND SC COUNTIES......

CITY           SKY/WX    TMP DP  RH WIND       PRES   REMARKS
WILMINGTON     CLOUDY    66  64  93 CALM      29.95F
N MYRTLE BEACH CLOUDY    67  65  93 CALM      29.95F
MYRTLE BEACH   CLOUDY    68  64  88 NW5       29.98F

......INLAND NC AND SC COUNTIES.......

CITY           SKY/WX    TMP DP  RH WIND       PRES   REMARKS
LUMBERTON      FOG       65  63  93 CALM      29.96F VSB 1
ELIZABETHTOWN  LGT RAIN  66  66 100 CALM      29.96F
WHITEVILLE     CLOUDY    65  64  96 CALM      29.96F FOG
FLORENCE       CLOUDY    67  64  90 CALM      29.97F
DARLINGTON     CLOUDY    66  61  82 CALM      29.98F

....................REST OF NORTH CAROLINA......................

.........EASTERN NC.........

CITY           SKY/WX    TMP DP  RH WIND       PRES   REMARKS
CAPE HATTERAS  CLOUDY    62  60  93 CALM      29.97S
JACKSONVILLE   CLOUDY    63  57  82 CALM      29.97F
MOREHEAD CITY  MOCLDY    65  64  97 CALM      29.96S
KENANSVILLE    CLOUDY    64  64  97 CALM      29.98F FOG
NEW BERN       CLOUDY    63  61  93 CALM      29.98S
ELIZABETH CITY MOCLDY    61  60  97 CALM      29.96F

.........CENTRAL NC.........

CITY           SKY/WX    TMP DP  RH WIND       PRES   REMARKS
RALEIGH DURHAM CLOUDY    63  61  93 CALM      29.97F
ROCKY MOUNT    CLOUDY    61  61 100 CALM      29.97F FOG
ROANOKE RAPIDS NOT AVBL
FAYETTEVILLE   CLOUDY    64  63  96 SE3       29.96F
HOFFMAN        LGT RAIN  63  63 100 SW2       30.00S FOG

.........WESTERN NC.........

CITY           SKY/WX    TMP DP  RH WIND       PRES   REMARKS
CHARLOTTE      CLOUDY    61  59  93 NW5       30.00R
GREENSBORO     MOCLDY    61  59  93 W5        29.96F
HICKORY        NOT AVBL
BOONE          NOT AVBL
ASHEVILLE      NOT AVBL

.....................REST OF SOUTH CAROLINA.....................

.........EASTERN SC.........

CITY           SKY/WX    TMP DP  RH WIND       PRES   REMARKS
CHARLESTON     LGT RAIN  67  66  97 CALM      29.97F FOG
BEAUFORT MCAS  LGT RAIN  68  67  96 CALM      29.96F FOG
HILTON HEAD    RAIN      68  68 100 CALM      29.99F

.........CENTRAL SC.........

CITY           SKY/WX    TMP DP  RH WIND       PRES   REMARKS
COLUMBIA       CLOUDY    67  64  90 CALM      29.97R
ORANGEBURG     LGT RAIN  66  63  90 NE3       29.97S FOG
SUMTER SHAW    CLOUDY    64  64 100 NW3       29.95F

.........WESTERN SC.........

CITY           SKY/WX    TMP DP  RH WIND       PRES   REMARKS
GREENVILLE     NOT AVBL
ROCK HILL      CLOUDY    61  60  97 CALM      29.98R FOG
ANDERSON       FOG       62  62 100 CALM      30.00S VSB 1/2
CLEMSON        NOT AVBL
GREENWOOD      LGT RAIN  62  61  96 CALM      30.00S FOG


...................COASTAL AND OFFSHORE REPORTS..................

................LOCAL PIERS AND NC RESERVE................


STATION/POSITION TIME  SKY/WX   TEMP    WIND        PRES    VSBY
                                AIR SEA DIR/SP/G
                 (UTC)          (F)     (DEG/KT/KT) (MB)    (MI)
JOHNY MRCER PIER 0700            66 65  340/  4/  4 1013.9F
NC RESRV MASNBRO NOT AVBL
OCEAN CREST PIER 0802            67 65  350/  5/  5 1013.3F
SPRINGMAID  PIER 0700            67 64  320/  5/  5 1014.7F


................COASTAL AND OFFSHORE BUOYS................


STATION/POSITION TIME  SKY/WX   TEMP    WIND        PRES    VSBY
                                AIR SEA DIR/SP/G
                 (UTC)          (F)     (DEG/KT/KT) (MB)    (MI)
DIMNDSHOAL 41025 0750            70 74   20/  8/  8 1014.6S
WVE H/P(F/S)=  5/ 8 WND WVE H/P(F/S)=  2/ 4 SWL H/P/D(F/S/D)=  5/100/ 8

CAPE LOOKOUT     0800            67      10/  4/  4 1014.4R
ONSLOW BAY 41036 NOT AVBL
5 WRITEBCH 41038 0700            64 63  360/  4/  6 1014.5F
MASONBORO  41110 0719               64                N/A
WVE H/P(F/S)=  3/ 8 WND WVE H/P(F/S)=  3/ 8

WILM HARBR 41108 0711               63                N/A
WVE H/P(F/S)=  3/ 8 WND WVE H/P(F/S)=  3/ 8

27WRITEBCH 41037 0700            70 72  140/  4/  6   N/A
FRYING PAN 41013 0750            74 73   90/  4/  6 1014.5R
WVE H/P(F/S)=  4/ 8 WND WVE H/P(F/S)=  2/ 4 SWL H/P/D(F/S/D)=  3/110/ 8

SUNST NRSH 41024 0708            66     340/  4/  6   N/A
CAPRS NRSH 41029 NOT AVBL
EDISTO     41004 0750            71 74  330/  6/  8 1014.1R
WVE H/P(F/S)=  4/ 8 WND WVE H/P(F/S)=  2/ 4 SWL H/P/D(F/S/D)=  3/ 8



..........OFFSHORE BUOYS BEYOND 100 NM OFFSHORE...........
.....IN A TRIANGLE---HAT TO BERMUDA TO BAHAMAS TO HAT.....


STATION/POSITION TIME  SKY/WX   TEMP    WIND        PRES    VSBY
                                AIR SEA DIR/SP/G
                 (UTC)          (F)     (DEG/KT/KT) (MB)    (MI)
150E HAT   41001 NOT AVBL
W BERMUDA  41048 0750            71 71  190/ 12/ 16 1014.2F
WVE H/P(F/S)=  6/12 WND WVE H/P(F/S)=  3/ 5 SWL H/P/D(F/S/D)=  5/12

ATLANTIC S 41049 0750            74 75  190/ 10/ 14 1017.9F
WVE H/P(F/S)=  9/11 WND WVE H/P(F/S)=  2/ 5 SWL H/P/D(F/S/D)=  8/ 20/11

E BAHAMAS  41046 0750            76 79  130/  8/ 10 1017.3F
WVE H/P(F/S)=  8/ 9 WND WVE H/P(F/S)=  2/ 4 SWL H/P/D(F/S/D)=  8/ 10/ 9

NE BAHAMAS 41047 0750            75 77  210/  6/  8 1016.0F
WVE H/P(F/S)=  6/ 9 WND WVE H/P(F/S)=  2/ 3 SWL H/P/D(F/S/D)=  7/ 50/ 9

120E CANVRL41010 0720            76 78  230/ 10/ 12 1015.2S

END



USA.gov is the U.S. government's official web portal to all federal, state and local government web resources and services.